This is the latest recevied weather packets stored in our database for station/object IW3HBX-3. If no packets are shown the sender has not sent any weather packets the latest 10 day(s).
| Time | Temp. | Humidity | Pressure | Rain* | Wind** | Luminosity | Snow |
|---|---|---|---|---|---|---|---|
| 1777596638 | 10.56° C | 54% | 1027.6 hPa | 0 mm | - | 0 W/m² | - |
| 1777596338 | 11.11° C | 54% | 1027.6 hPa | 0 mm | - | 0 W/m² | - |
| 1777596038 | 11.11° C | 54% | 1027.7 hPa | 0 mm | - | 0 W/m² | - |
| 1777595738 | 11.11° C | 54% | 1027.7 hPa | 0 mm | - | 0 W/m² | - |
| 1777595438 | 11.11° C | 53% | 1027.6 hPa | 0 mm | - | 0 W/m² | - |
| 1777595138 | 11.11° C | 54% | 1027.6 hPa | 0 mm | - | 0 W/m² | - |
| 1777594838 | 11.67° C | 54% | 1027.7 hPa | 0 mm | - | 0 W/m² | - |
| 1777594538 | 11.67° C | 54% | 1027.7 hPa | 0 mm | - | 0 W/m² | - |
| 1777594238 | 11.67° C | 53% | 1027.7 hPa | 0 mm | - | 0 W/m² | - |
| 1777593938 | 11.67° C | 54% | 1027.7 hPa | 0 mm | - | 0 W/m² | - |
| 1777593637 | 11.11° C | 57% | 1027.7 hPa | 0 mm | - | 0 W/m² | - |
| 1777593337 | 11.11° C | 59% | 1027.7 hPa | 0 mm | - | 0 W/m² | - |
| 1777592737 | 11.11° C | 60% | 1027.6 hPa | 0 mm | - | 0 W/m² | - |
| 1777592437 | 11.11° C | 60% | 1027.7 hPa | 0 mm | - | 0 W/m² | - |
| 1777592137 | 11.11° C | 60% | 1027.6 hPa | 0 mm | - | 0 W/m² | - |
| 1777591837 | 11.11° C | 59% | 1027.7 hPa | 0 mm | - | 0 W/m² | - |
| 1777591537 | 11.11° C | 59% | 1027.7 hPa | 0 mm | - | 0 W/m² | - |
| 1777590937 | 10.56° C | 60% | 1027.5 hPa | 0 mm | - | 0 W/m² | - |
| 1777590637 | 10.56° C | 63% | 1027.6 hPa | 0 mm | - | 0 W/m² | - |
| 1777590336 | 10.56° C | 61% | 1027.5 hPa | 0 mm | - | 0 W/m² | - |
| 1777590036 | 11.11° C | 59% | 1027.4 hPa | 0 mm | - | 0 W/m² | - |
| 1777589736 | 11.67° C | 56% | 1027.4 hPa | 0 mm | - | 0 W/m² | - |
| 1777589136 | 11.67° C | 55% | 1027.4 hPa | 0 mm | - | 0 W/m² | - |
| 1777588836 | 11.67° C | 54% | 1027.3 hPa | 0 mm | - | 0 W/m² | - |
| 1777588536 | 11.67° C | 54% | 1027.2 hPa | 0 mm | - | 0 W/m² | - |
* Rain latest hour (hover to see other rain measurements)
** Current wind speed in m/s (hover to see current wind gust speed)